Satellite-Ground Cal/Val Site Overpasses Predictions

Prediction of Satellite NPP Overpassing Cal/Val Site: Antarctic Dome C

Ground Cal/Val Site Location: Latitude: -75.10, Longitude: 123.35; Satellite-Ground Site NADIR distance within 100 km.

Table of predicted overpasses for the next 14.0 days since TLE Epoch: 4/9/2022
Interval Starting Time Ending Time Minimum Distance Time Minimum Distance (km)
1 04/09/2022 07:25:21 04/09/2022 07:25:48 04/09/2022 07:25:35 37.07
2 04/11/2022 15:07:47 04/11/2022 15:07:55 04/11/2022 15:07:51 95.52
3 04/12/2022 14:48:46 04/12/2022 14:49:15 04/12/2022 14:49:01 15.69
4 04/14/2022 07:31:35 04/14/2022 07:32:04 04/14/2022 07:31:50 1.63
5 04/17/2022 14:55:00 04/17/2022 14:55:29 04/17/2022 14:55:15 20.59
6 04/18/2022 14:36:19 04/18/2022 14:36:33 04/18/2022 14:36:26 86.48
7 04/19/2022 07:37:51 04/19/2022 07:38:18 04/19/2022 07:38:04 35.36
8 04/20/2022 07:19:04 04/20/2022 07:19:23 04/20/2022 07:19:14 74.84
